| time (UTC) | temp F | wind direction | speed knots | gust knots | rain 1hr in | rain 24hr in | rain mn in | humidity % | barometer mb |
| 20260505031538 | 64 | 162 | 0.9 | 10.4 | 0.00 | 0.02 | 0.02 | 73 | 1000.3 |
| 20260505030038 | 64 | 342 | 5.2 | 13.9 | 0.00 | 0.02 | 0.02 | 73 | 1000.4 |
| 20260505024537 | 63 | 236 | 2.6 | 10.4 | 0.00 | 0.02 | 0.02 | 74 | 1000.5 |
| 20260505023042 | 62 | 195 | 1.7 | 7.0 | 0.00 | 0.02 | 0.02 | 76 | 1000.2 |
| 20260505021536 | 61 | 250 | 0.9 | 5.2 | 0.00 | 0.02 | 0.02 | 77 | 1000.4 |
| 20260505020037 | 62 | 145 | 1.7 | 9.6 | 0.00 | 0.02 | 0.02 | 76 | 1000.2 |
| 20260505014535 | 62 | 114 | 1.7 | 8.7 | 0.00 | 0.02 | 0.02 | 77 | 1000.0 |
| 20260505013033 | 62 | 189 | 2.6 | 8.7 | 0.00 | 0.02 | 0.02 | 76 | 1000.1 |
| 20260505011543 | 62 | 260 | 4.3 | 9.6 | 0.00 | 0.02 | 0.02 | 77 | 1000.0 |
| 20260505010101 | 61 | 263 | 1.7 | 9.6 | 0.00 | 0.02 | 0.02 | 81 | 999.8 |
| 20260505004536 | 60 | 262 | 1.7 | 4.3 | 0.02 | 0.02 | 0.02 | 83 | 999.6 |
| 20260505003045 | 60 | 202 | 1.7 | 5.2 | 0.02 | 0.02 | 0.02 | 84 | 999.5 |
| 20260505001534 | 60 | 238 | 1.7 | 5.2 | 0.02 | 0.02 | 0.02 | 84 | 999.5 |
| 20260505000044 | 60 | 226 | 1.7 | 7.0 | 0.02 | 0.02 | 0.02 | 83 | 999.6 |
| 20260504234536 | 61 | 178 | 3.5 | 11.3 | 0.00 | 0.00 | 0.00 | 79 | 1000.0 |
| 20260504233043 | 61 | 21 | 1.7 | 7.0 | 0.00 | 0.00 | 0.00 | 78 | 1000.0 |
| 20260504231532 | 65 | 160 | 6.1 | 26.9 | 0.00 | 0.00 | 0.00 | 70 | 999.9 |
| 20260504230045 | 74 | 147 | 5.2 | 12.2 | 0.00 | 0.00 | 0.00 | 50 | 999.4 |
| 20260504224537 | 75 | 187 | 4.3 | 12.2 | 0.00 | 0.00 | 0.00 | 49 | 999.1 |
| 20260504223036 | 76 | 148 | 3.5 | 11.3 | 0.00 | 0.00 | 0.00 | 49 | 998.9 |
| 20260504221545 | 74 | 229 | 4.3 | 12.2 | 0.00 | 0.00 | 0.00 | 49 | 999.4 |
| 20260504220040 | 75 | 237 | 5.2 | 12.2 | 0.00 | 0.00 | 0.00 | 49 | 999.5 |
| 20260504214537 | 74 | 250 | 4.3 | 16.5 | 0.00 | 0.00 | 0.00 | 49 | 999.8 |
| 20260504213047 | 74 | 214 | 5.2 | 12.2 | 0.00 | 0.00 | 0.00 | 48 | 999.9 |
| 20260504211536 | 75 | 231 | 2.6 | 18.2 | 0.00 | 0.00 | 0.00 | 46 | 1000.0 |
| 20260504210034 | 74 | 333 | 5.2 | 18.2 | 0.00 | 0.00 | 0.00 | 45 | 1000.3 |
| 20260504204534 | 75 | 211 | 4.3 | 12.2 | 0.00 | 0.00 | 0.00 | 44 | 1000.4 |
| 20260504203046 | 74 | 249 | 6.1 | 17.4 | 0.00 | 0.00 | 0.00 | 42 | 1000.6 |
| 20260504201532 | 75 | 231 | 5.2 | 13.9 | 0.00 | 0.00 | 0.00 | 40 | 1000.7 |
| 20260504200032 | 74 | 143 | 7.0 | 15.6 | 0.00 | 0.00 | 0.00 | 39 | 1000.6 |
| 20260504194546 | 75 | 312 | 4.3 | 15.6 | 0.00 | 0.00 | 0.00 | 40 | 1000.8 |
| 20260504193037 | 75 | 231 | 4.3 | 14.8 | 0.00 | 0.00 | 0.00 | 40 | 1000.9 |
| 20260504191540 | 75 | 238 | 8.7 | 20.9 | 0.00 | 0.00 | 0.00 | 36 | 1001.1 |
| 20260504190034 | 75 | 191 | 4.3 | 19.1 | 0.00 | 0.00 | 0.00 | 36 | 1001.2 |
| 20260504184535 | 74 | 231 | 9.6 | 20.9 | 0.00 | 0.01 | 0.00 | 32 | 1001.4 |
| 20260504183031 | 74 | 231 | 5.2 | 19.1 | 0.00 | 0.01 | 0.00 | 34 | 1001.4 |
| 20260504181540 | 73 | 283 | 8.7 | 20.0 | 0.00 | 0.01 | 0.00 | 33 | 1001.8 |
| 20260504180045 | 73 | 221 | 4.3 | 15.6 | 0.00 | 0.01 | 0.00 | 38 | 1001.8 |
| 20260504174535 | 73 | 243 | 4.3 | 17.4 | 0.00 | 0.01 | 0.00 | 42 | 1001.9 |
| 20260504173035 | 73 | 261 | 5.2 | 19.1 | 0.00 | 0.01 | 0.00 | 46 | 1002.1 |
| 20260504171536 | 72 | 276 | 11.3 | 25.2 | 0.00 | 0.01 | 0.00 | 39 | 1002.6 |
| 20260504081537 | 47 | 190 | 0.0 | 4.3 | 0.00 | 0.01 | 0.00 | 78 | 1005.3 |
| 20260504044541 | 50 | 195 | 2.6 | 8.7 | 0.00 | 0.01 | 0.00 | 70 | 1007.8 |
| 20260504043040 | 50 | 153 | 3.5 | 8.7 | 0.00 | 0.01 | 0.00 | 70 | 1008.1 |
| 20260504041535 | 50 | 201 | 2.6 | 8.7 | 0.00 | 0.01 | 0.00 | 70 | 1008.1 |
| 20260504040057 | 50 | 240 | 2.6 | 9.6 | 0.00 | 0.01 | 0.00 | 71 | 1008.2 |
| 20260504034541 | 50 | 244 | 1.7 | 9.6 | 0.00 | 0.01 | 0.01 | 71 | 1008.3 |
| 20260504033035 | 50 | 276 | 2.6 | 10.4 | 0.00 | 0.01 | 0.01 | 70 | 1008.3 |